Year,Month,Day,Hour,Minute,Value (Times are PST for temperature in C)
2015,06,29,00,00,22.30
2015,06,29,00,01,22.30
2015,06,29,00,02,22.30
2015,06,29,00,03,22.30
2015,06,29,00,04,22.20
2015,06,29,00,05,22.20
2015,06,29,00,06,22.20
2015,06,29,00,07,22.20
2015,06,29,00,08,22.10
2015,06,29,00,09,22.10
2015,06,29,00,10,22.10
2015,06,29,00,11,22.10
2015,06,29,00,12,22.10
2015,06,29,00,16,22.00
2015,06,29,00,17,21.90
2015,06,29,00,18,21.90
2015,06,29,00,19,21.90
2015,06,29,00,20,21.90
2015,06,29,00,21,21.90
2015,06,29,00,22,21.80
2015,06,29,00,23,21.80
2015,06,29,00,24,21.80
2015,06,29,00,25,21.80
2015,06,29,00,26,21.80
2015,06,29,00,27,21.70
2015,06,29,00,28,21.70
2015,06,29,00,29,21.70
2015,06,29,00,30,21.70
2015,06,29,00,31,21.70
2015,06,29,00,32,21.70
2015,06,29,00,33,21.70
2015,06,29,00,34,21.70
2015,06,29,00,35,21.70
2015,06,29,00,36,21.60
2015,06,29,00,37,21.60
2015,06,29,00,38,21.60
2015,06,29,00,39,21.60
2015,06,29,00,40,21.60
2015,06,29,00,41,21.60
2015,06,29,00,42,21.60
2015,06,29,00,43,21.60
2015,06,29,00,44,21.60
2015,06,29,00,45,21.60
2015,06,29,00,46,21.60
2015,06,29,00,47,21.60
2015,06,29,00,48,21.60
2015,06,29,00,49,21.60
2015,06,29,00,50,21.60
2015,06,29,00,51,21.60
2015,06,29,00,52,21.60
2015,06,29,00,53,21.60
2015,06,29,00,54,21.60
2015,06,29,00,55,21.70
2015,06,29,00,56,21.70
2015,06,29,00,57,21.70
2015,06,29,00,58,21.80
2015,06,29,00,59,21.80
2015,06,29,01,00,21.80
2015,06,29,01,01,21.80
2015,06,29,01,02,21.80
2015,06,29,01,03,21.80
2015,06,29,01,04,21.80
2015,06,29,01,05,21.80
2015,06,29,01,06,21.80
2015,06,29,01,07,21.80
2015,06,29,01,08,21.80
2015,06,29,01,09,21.80
2015,06,29,01,10,21.80
2015,06,29,01,11,21.80
2015,06,29,01,12,21.80
2015,06,29,01,13,21.80
2015,06,29,01,14,21.80
2015,06,29,01,15,21.70
2015,06,29,01,16,21.70
2015,06,29,01,17,21.70
2015,06,29,01,18,21.70
2015,06,29,01,19,21.70
2015,06,29,01,20,21.70
2015,06,29,01,21,21.70
2015,06,29,01,22,21.70
2015,06,29,01,23,21.60
2015,06,29,01,24,21.60
2015,06,29,01,25,21.60
2015,06,29,01,26,21.60
2015,06,29,01,27,21.60
2015,06,29,01,28,21.60
2015,06,29,01,29,21.50
2015,06,29,01,30,21.40
2015,06,29,01,31,21.30
2015,06,29,01,32,21.30
2015,06,29,01,33,21.30
2015,06,29,01,34,21.30
2015,06,29,01,35,21.30
2015,06,29,01,36,21.30
2015,06,29,01,37,21.30
2015,06,29,01,38,21.30
2015,06,29,01,39,21.30
2015,06,29,01,40,21.30
2015,06,29,01,41,21.30
2015,06,29,01,42,21.30
2015,06,29,01,43,21.30
2015,06,29,01,44,21.20
2015,06,29,01,45,21.20
2015,06,29,01,46,21.20
2015,06,29,01,47,21.20
2015,06,29,01,48,21.20
2015,06,29,01,49,21.20
2015,06,29,01,50,21.10
2015,06,29,01,51,21.10
2015,06,29,01,52,21.10
2015,06,29,01,53,21.10
2015,06,29,01,54,21.10
2015,06,29,01,55,21.10
2015,06,29,01,56,21.00
2015,06,29,01,57,21.00
2015,06,29,01,58,21.00
2015,06,29,01,59,21.00
2015,06,29,02,00,21.00
2015,06,29,02,01,20.90
2015,06,29,02,02,20.90
2015,06,29,02,03,20.90
2015,06,29,02,04,20.90
2015,06,29,02,05,20.90
2015,06,29,02,06,20.90
2015,06,29,02,07,20.80
2015,06,29,02,08,20.80
2015,06,29,02,09,20.80
2015,06,29,02,10,20.80
2015,06,29,02,11,20.80
2015,06,29,02,12,20.80
2015,06,29,02,13,20.80
2015,06,29,02,14,20.80
2015,06,29,02,15,20.80
2015,06,29,02,16,20.70
2015,06,29,02,17,20.70
2015,06,29,02,18,20.70
2015,06,29,02,19,20.70
2015,06,29,02,20,20.70
2015,06,29,02,21,20.70
2015,06,29,02,22,20.70
2015,06,29,02,23,20.70
2015,06,29,02,24,20.70
2015,06,29,02,25,20.70
2015,06,29,02,26,20.60
2015,06,29,02,27,20.60
2015,06,29,02,28,20.60
2015,06,29,02,29,20.60
2015,06,29,02,30,20.60
2015,06,29,02,31,20.60
2015,06,29,02,32,20.60
2015,06,29,02,33,20.50
2015,06,29,02,34,20.50
2015,06,29,02,35,20.50
2015,06,29,02,36,20.50
2015,06,29,02,37,20.50
2015,06,29,02,38,20.50
2015,06,29,02,39,20.50
2015,06,29,02,40,20.50
2015,06,29,02,41,20.50
2015,06,29,02,42,20.40
2015,06,29,02,43,20.40
2015,06,29,02,44,20.40
2015,06,29,02,45,20.40
2015,06,29,02,46,20.40
2015,06,29,02,47,20.40
2015,06,29,02,48,20.40
2015,06,29,02,49,20.40
2015,06,29,02,50,20.40
2015,06,29,02,51,20.40
2015,06,29,02,52,20.30
2015,06,29,02,53,20.30
2015,06,29,02,54,20.30
2015,06,29,02,55,20.30
2015,06,29,02,56,20.30
2015,06,29,02,57,20.30
2015,06,29,02,58,20.30
2015,06,29,02,59,20.30
2015,06,29,03,00,20.30
2015,06,29,03,01,20.30
2015,06,29,03,02,20.30
2015,06,29,03,03,20.30
2015,06,29,03,04,20.30
2015,06,29,03,05,20.30
2015,06,29,03,06,20.30
2015,06,29,03,07,20.30
2015,06,29,03,08,20.30
2015,06,29,03,09,20.30
2015,06,29,03,10,20.30
2015,06,29,03,11,20.30
2015,06,29,03,12,20.30
2015,06,29,03,13,20.30
2015,06,29,03,14,20.30
2015,06,29,03,15,20.30
2015,06,29,03,16,20.30
2015,06,29,03,17,20.30
2015,06,29,03,18,20.30
2015,06,29,03,19,20.30
2015,06,29,03,20,20.30
2015,06,29,03,21,20.30
2015,06,29,03,22,20.30
2015,06,29,03,23,20.40
2015,06,29,03,24,20.40
2015,06,29,03,25,20.40
2015,06,29,03,26,20.40
2015,06,29,03,27,20.40
2015,06,29,03,28,20.40
2015,06,29,03,29,20.40
2015,06,29,03,30,20.40
2015,06,29,03,31,20.40
2015,06,29,03,32,20.40
2015,06,29,03,33,20.40
2015,06,29,03,34,20.40
2015,06,29,03,35,20.40
2015,06,29,03,36,20.40
2015,06,29,03,37,20.40
2015,06,29,03,38,20.40
2015,06,29,03,39,20.40
2015,06,29,03,40,20.40
2015,06,29,03,41,20.40
2015,06,29,03,42,20.30
2015,06,29,03,43,20.30
2015,06,29,03,44,20.30
2015,06,29,03,45,20.30
2015,06,29,03,46,20.30
2015,06,29,03,47,20.30
2015,06,29,03,48,20.30
2015,06,29,03,49,20.30
2015,06,29,03,50,20.30
2015,06,29,03,51,20.30
2015,06,29,03,52,20.20
2015,06,29,03,53,20.20
2015,06,29,03,54,20.20
2015,06,29,03,55,20.20
2015,06,29,03,56,20.20
2015,06,29,03,57,20.20
2015,06,29,03,58,20.20
2015,06,29,03,59,20.20
2015,06,29,04,00,20.20
2015,06,29,04,01,20.20
2015,06,29,04,02,20.20
2015,06,29,04,03,20.20
2015,06,29,04,04,20.20
2015,06,29,04,05,20.20
2015,06,29,04,06,20.20
2015,06,29,04,07,20.20
2015,06,29,04,08,20.20
2015,06,29,04,09,20.20
2015,06,29,04,10,20.20
2015,06,29,04,11,20.20
2015,06,29,04,12,20.20
2015,06,29,04,13,20.20
2015,06,29,04,14,20.20
2015,06,29,04,15,20.20
2015,06,29,04,16,20.20
2015,06,29,04,17,20.10
2015,06,29,04,18,20.10
2015,06,29,04,19,20.10
2015,06,29,04,20,20.10
2015,06,29,04,21,20.10
2015,06,29,04,22,20.10
2015,06,29,04,23,20.10
2015,06,29,04,24,20.10
2015,06,29,04,25,20.10
2015,06,29,04,26,20.10
2015,06,29,04,27,20.10
2015,06,29,04,28,20.10
2015,06,29,04,29,20.10
2015,06,29,04,30,20.00
2015,06,29,04,31,19.90
2015,06,29,04,32,19.90
2015,06,29,04,33,19.90
2015,06,29,04,34,19.90
2015,06,29,04,35,19.90
2015,06,29,04,36,19.90
2015,06,29,04,37,19.90
2015,06,29,04,38,19.90
2015,06,29,04,39,19.90
2015,06,29,04,40,19.90
2015,06,29,04,41,19.90
2015,06,29,04,42,19.90
2015,06,29,04,43,19.90
2015,06,29,04,44,19.90
2015,06,29,04,45,19.80
2015,06,29,04,46,19.80
2015,06,29,04,47,19.80
2015,06,29,04,48,19.80
2015,06,29,04,49,19.80
2015,06,29,04,50,19.80
2015,06,29,04,51,19.80
2015,06,29,04,52,19.80
2015,06,29,04,53,19.80
2015,06,29,04,54,19.80
2015,06,29,04,55,19.80
2015,06,29,04,56,19.80
2015,06,29,04,57,19.70
2015,06,29,04,58,19.70
2015,06,29,04,59,19.70
2015,06,29,05,00,19.70
2015,06,29,05,01,19.70
2015,06,29,05,02,19.70
2015,06,29,05,03,19.70
2015,06,29,05,04,19.70
2015,06,29,05,05,19.70
2015,06,29,05,06,19.70
2015,06,29,05,07,19.70
2015,06,29,05,08,19.70
2015,06,29,05,09,19.60
2015,06,29,05,10,19.60
2015,06,29,05,11,19.60
2015,06,29,05,12,19.60
2015,06,29,05,13,19.50
2015,06,29,05,14,19.50
2015,06,29,05,15,19.50
2015,06,29,05,16,19.40
2015,06,29,05,17,19.40
2015,06,29,05,18,19.40
2015,06,29,05,19,19.30
2015,06,29,05,20,19.30
2015,06,29,05,21,19.20
2015,06,29,05,22,19.20
2015,06,29,05,23,19.10
2015,06,29,05,24,19.10
2015,06,29,05,25,19.10
2015,06,29,05,26,19.10
2015,06,29,05,27,19.10
2015,06,29,05,28,19.10
2015,06,29,05,29,19.10
2015,06,29,05,30,19.10
2015,06,29,05,31,19.10
2015,06,29,05,32,19.10
2015,06,29,05,33,19.10
2015,06,29,05,34,19.10
2015,06,29,05,35,19.00
2015,06,29,05,36,18.90
2015,06,29,05,37,18.90
2015,06,29,05,38,18.90
2015,06,29,05,39,18.90
2015,06,29,05,40,18.90
2015,06,29,05,41,18.90
2015,06,29,05,42,18.90
2015,06,29,05,43,18.90
2015,06,29,05,44,18.90
2015,06,29,05,45,18.90
2015,06,29,05,46,18.90
2015,06,29,05,47,18.90
2015,06,29,05,48,18.90
2015,06,29,05,49,18.90
2015,06,29,05,50,18.90
2015,06,29,05,51,18.90
2015,06,29,05,52,18.90
2015,06,29,05,53,18.90
2015,06,29,05,54,18.90
2015,06,29,05,55,18.90
2015,06,29,05,56,18.90
2015,06,29,05,57,18.90
2015,06,29,05,58,18.80
2015,06,29,05,59,18.80
2015,06,29,06,00,18.80
2015,06,29,06,01,18.80
2015,06,29,06,02,18.80
2015,06,29,06,03,18.80
2015,06,29,06,04,18.80
2015,06,29,06,05,18.80
2015,06,29,06,06,18.80
2015,06,29,06,07,18.80
2015,06,29,06,08,18.80
2015,06,29,06,09,18.80
2015,06,29,06,10,18.80
2015,06,29,06,11,18.80
2015,06,29,06,12,18.80
2015,06,29,06,13,18.80
2015,06,29,06,14,18.80
2015,06,29,06,15,18.80
2015,06,29,06,16,18.90
2015,06,29,06,17,18.90
2015,06,29,06,18,18.90
2015,06,29,06,19,18.90
2015,06,29,06,20,18.90
2015,06,29,06,21,18.90
2015,06,29,06,22,18.90
2015,06,29,06,23,18.90
2015,06,29,06,24,18.90
2015,06,29,06,25,18.90
2015,06,29,06,26,18.90
2015,06,29,06,27,18.90
2015,06,29,06,28,18.90
2015,06,29,06,29,18.90
2015,06,29,06,30,18.90
2015,06,29,06,31,18.90
2015,06,29,06,32,18.90
2015,06,29,06,33,18.90
2015,06,29,06,34,18.90
2015,06,29,06,35,18.90
2015,06,29,06,36,18.90
2015,06,29,06,37,18.90
2015,06,29,06,38,18.90
2015,06,29,06,39,18.90
2015,06,29,06,40,18.90
2015,06,29,06,41,18.90
2015,06,29,06,42,18.90
2015,06,29,06,43,18.90
2015,06,29,06,44,18.80
2015,06,29,06,45,18.80
2015,06,29,06,46,18.80
2015,06,29,06,47,18.80
2015,06,29,06,48,18.80
2015,06,29,06,49,18.80
2015,06,29,06,50,18.80
2015,06,29,06,51,18.80
2015,06,29,06,52,18.80
2015,06,29,06,53,18.80
2015,06,29,06,54,18.80
2015,06,29,06,55,18.80
2015,06,29,06,56,18.80
2015,06,29,06,57,18.80
2015,06,29,06,58,18.80
2015,06,29,06,59,18.80
2015,06,29,07,00,18.80
2015,06,29,07,01,18.80
2015,06,29,07,02,18.80
2015,06,29,07,03,18.80
2015,06,29,07,04,18.80
2015,06,29,07,05,18.80
2015,06,29,07,06,18.80
2015,06,29,07,07,18.80
2015,06,29,07,08,18.80
2015,06,29,07,09,18.80
2015,06,29,07,10,18.80
2015,06,29,07,11,18.80
2015,06,29,07,12,18.80
2015,06,29,07,13,18.80
2015,06,29,07,14,18.80
2015,06,29,07,15,18.80
2015,06,29,07,16,18.80
2015,06,29,07,17,18.90
2015,06,29,07,18,18.90
2015,06,29,07,19,18.90
2015,06,29,07,20,18.90
2015,06,29,07,21,18.90
2015,06,29,07,22,18.90
2015,06,29,07,23,18.90
2015,06,29,07,24,18.90
2015,06,29,07,25,18.90
2015,06,29,07,26,18.90
2015,06,29,07,27,18.90
2015,06,29,07,28,19.00
2015,06,29,07,29,19.10
2015,06,29,07,30,19.10
2015,06,29,07,31,19.10
2015,06,29,07,32,19.10
2015,06,29,07,33,19.10
2015,06,29,07,34,19.10
2015,06,29,07,35,19.10
2015,06,29,07,36,19.10
2015,06,29,07,37,19.10
2015,06,29,07,38,19.20
2015,06,29,07,39,19.20
2015,06,29,07,40,19.20
2015,06,29,07,41,19.20
2015,06,29,07,42,19.30
2015,06,29,07,43,19.30
2015,06,29,07,44,19.30
2015,06,29,07,45,19.40
2015,06,29,07,46,19.40
2015,06,29,07,47,19.40
2015,06,29,07,48,19.40
2015,06,29,07,49,19.50
2015,06,29,07,50,19.50
2015,06,29,07,51,19.50
2015,06,29,07,52,19.60
2015,06,29,07,53,19.60
2015,06,29,07,54,19.60
2015,06,29,07,55,19.60
2015,06,29,07,56,19.70
2015,06,29,07,57,19.70
2015,06,29,07,58,19.80
2015,06,29,07,59,19.80
2015,06,29,08,00,19.80
2015,06,29,08,01,19.90
2015,06,29,08,02,19.90
2015,06,29,08,03,20.00
2015,06,29,08,04,20.10
2015,06,29,08,05,20.20
2015,06,29,08,06,20.30
2015,06,29,08,07,20.30
2015,06,29,08,08,20.40
2015,06,29,08,09,20.50
2015,06,29,08,10,20.60
2015,06,29,08,11,20.70
2015,06,29,08,12,20.80
2015,06,29,08,13,20.90
2015,06,29,08,14,21.00
2015,06,29,08,15,21.20
2015,06,29,08,16,21.30
2015,06,29,08,17,21.30
2015,06,29,08,18,21.40
2015,06,29,08,19,21.40
2015,06,29,08,20,21.50
2015,06,29,08,21,21.60
2015,06,29,08,22,21.60
2015,06,29,08,23,21.60
2015,06,29,08,24,21.60
2015,06,29,08,25,21.60
2015,06,29,08,26,21.60
2015,06,29,08,27,21.70
2015,06,29,08,28,21.70
2015,06,29,08,29,21.70
2015,06,29,08,30,21.60
2015,06,29,08,31,21.60
2015,06,29,08,32,21.60
2015,06,29,08,33,21.60
2015,06,29,08,34,21.60
2015,06,29,08,35,21.70
2015,06,29,08,36,21.70
2015,06,29,08,37,21.70
2015,06,29,08,38,21.80
2015,06,29,08,39,21.80
2015,06,29,08,40,21.80
2015,06,29,08,41,21.90
2015,06,29,08,42,21.90
2015,06,29,08,43,22.00
2015,06,29,08,44,22.00
2015,06,29,08,45,22.00
2015,06,29,08,46,22.10
2015,06,29,08,47,22.10
2015,06,29,08,48,22.10
2015,06,29,08,49,22.20
2015,06,29,08,50,22.20
2015,06,29,08,51,22.20
2015,06,29,08,52,22.30
2015,06,29,08,53,22.30
2015,06,29,08,54,22.40
2015,06,29,08,55,22.40
2015,06,29,08,56,22.50
2015,06,29,08,57,22.60
2015,06,29,08,58,22.70
2015,06,29,08,59,22.70
2015,06,29,09,00,22.80
2015,06,29,09,01,22.90
2015,06,29,09,02,22.90
2015,06,29,09,03,23.00
2015,06,29,09,04,23.10
2015,06,29,09,05,23.20
2015,06,29,09,06,23.30
2015,06,29,09,07,23.30
2015,06,29,09,08,23.40
2015,06,29,09,09,23.60
2015,06,29,09,10,23.70
2015,06,29,09,11,23.70
2015,06,29,09,12,23.80
2015,06,29,09,13,23.80
2015,06,29,09,14,23.90
2015,06,29,09,15,24.00
2015,06,29,09,16,24.10
2015,06,29,09,17,24.10
2015,06,29,09,18,24.10
2015,06,29,09,19,24.10
2015,06,29,09,20,24.10
2015,06,29,09,21,24.10
2015,06,29,09,22,24.10
2015,06,29,09,23,24.10
2015,06,29,09,24,24.10
2015,06,29,09,25,24.10
2015,06,29,09,26,24.00
2015,06,29,09,27,23.90
2015,06,29,09,28,23.90
2015,06,29,09,29,23.90
2015,06,29,09,30,24.00
2015,06,29,09,31,24.00
2015,06,29,09,32,24.10
2015,06,29,09,33,24.10
2015,06,29,09,34,24.10
2015,06,29,09,35,24.10
2015,06,29,09,36,24.20
2015,06,29,09,37,24.30
2015,06,29,09,38,24.30
2015,06,29,09,39,24.30
2015,06,29,09,40,24.40
2015,06,29,09,41,24.40
2015,06,29,09,42,24.40
2015,06,29,09,43,24.40
2015,06,29,09,44,24.40
2015,06,29,09,45,24.30
2015,06,29,09,46,24.10
2015,06,29,09,47,24.10
2015,06,29,09,48,24.10
2015,06,29,09,49,24.00
2015,06,29,09,50,23.90
2015,06,29,09,51,23.80
2015,06,29,09,52,23.80
2015,06,29,09,53,23.70
2015,06,29,09,54,23.70
2015,06,29,09,55,23.60
2015,06,29,09,56,23.60
2015,06,29,09,57,23.60
2015,06,29,09,58,23.60
2015,06,29,09,59,23.70
2015,06,29,10,00,23.70
2015,06,29,10,01,23.80
2015,06,29,10,02,23.80
2015,06,29,10,03,23.90
2015,06,29,10,04,24.00
2015,06,29,10,05,24.10
2015,06,29,10,06,24.10
2015,06,29,10,07,24.30
2015,06,29,10,08,24.40
2015,06,29,10,09,24.50
2015,06,29,10,10,24.60
2015,06,29,10,11,24.70
2015,06,29,10,12,24.70
2015,06,29,10,13,24.80
2015,06,29,10,14,24.90
2015,06,29,10,15,25.00
2015,06,29,10,16,25.10
2015,06,29,10,17,25.10
2015,06,29,10,18,25.20
2015,06,29,10,19,25.20
2015,06,29,10,20,25.20
2015,06,29,10,21,25.20
2015,06,29,10,22,25.20
2015,06,29,10,23,25.20
2015,06,29,10,24,25.20
2015,06,29,10,25,25.20
2015,06,29,10,26,25.20
2015,06,29,10,27,25.20
2015,06,29,10,28,25.20
2015,06,29,10,29,25.10
2015,06,29,10,30,25.10
2015,06,29,10,31,25.10
2015,06,29,10,32,25.10
2015,06,29,10,33,25.20
2015,06,29,10,34,25.20
2015,06,29,10,35,25.20
2015,06,29,10,36,25.20
2015,06,29,10,37,25.20
2015,06,29,10,38,25.20
2015,06,29,10,39,25.10
2015,06,29,10,40,25.00
2015,06,29,10,41,24.90
2015,06,29,10,42,24.90
2015,06,29,10,43,24.70
2015,06,29,10,44,24.60
2015,06,29,10,45,24.50
2015,06,29,10,46,24.40
2015,06,29,10,47,24.30
2015,06,29,10,48,24.20
2015,06,29,10,49,24.10
2015,06,29,10,50,24.00
2015,06,29,10,51,23.90
2015,06,29,10,52,23.90
2015,06,29,10,53,23.80
2015,06,29,10,54,23.70
2015,06,29,10,55,23.60
2015,06,29,10,56,23.50
2015,06,29,10,57,23.40
2015,06,29,10,58,23.30
2015,06,29,10,59,23.30
2015,06,29,11,00,23.30
2015,06,29,11,01,23.30
2015,06,29,11,02,23.30
2015,06,29,11,03,23.30
2015,06,29,11,04,23.30
2015,06,29,11,05,23.30
2015,06,29,11,06,23.30
2015,06,29,11,07,23.30
2015,06,29,11,08,23.20
2015,06,29,11,09,23.10
2015,06,29,11,10,23.10
2015,06,29,11,11,23.10
2015,06,29,11,12,23.00
2015,06,29,11,13,22.90
2015,06,29,11,14,22.90
2015,06,29,11,15,22.80
2015,06,29,11,16,22.80
2015,06,29,11,17,22.70
2015,06,29,11,18,22.70
2015,06,29,11,19,22.70
2015,06,29,11,20,22.70
2015,06,29,11,21,22.80
2015,06,29,11,22,22.80
2015,06,29,11,23,22.90
2015,06,29,11,24,22.90
2015,06,29,11,25,23.10
2015,06,29,11,26,23.30
2015,06,29,11,27,23.40
2015,06,29,11,28,23.50
2015,06,29,11,29,23.60
2015,06,29,11,30,23.70
2015,06,29,11,31,23.70
2015,06,29,11,32,23.80
2015,06,29,11,33,23.90
2015,06,29,11,34,23.90
2015,06,29,11,35,23.90
2015,06,29,11,36,23.90
2015,06,29,11,37,23.90
2015,06,29,11,38,23.90
2015,06,29,11,39,23.90
2015,06,29,11,40,23.90
2015,06,29,11,41,23.80
2015,06,29,11,42,23.80
2015,06,29,11,43,23.90
2015,06,29,11,44,23.90
2015,06,29,11,45,23.80
2015,06,29,11,46,23.80
2015,06,29,11,47,23.80
2015,06,29,11,48,23.80
2015,06,29,11,49,23.80
2015,06,29,11,50,23.90
2015,06,29,11,51,23.90
2015,06,29,11,52,24.00
2015,06,29,11,53,24.10
2015,06,29,11,54,24.10
2015,06,29,11,55,24.10
2015,06,29,11,56,24.10
2015,06,29,11,57,24.10
2015,06,29,11,58,24.10
2015,06,29,11,59,24.10
2015,06,29,12,00,24.10
2015,06,29,12,01,24.20
2015,06,29,12,02,24.20
2015,06,29,12,03,24.20
2015,06,29,12,04,24.20
2015,06,29,12,05,24.20
2015,06,29,12,06,24.10
2015,06,29,12,07,24.10
2015,06,29,12,08,24.10
2015,06,29,12,09,24.20
2015,06,29,12,10,24.20
2015,06,29,12,11,24.20
2015,06,29,12,12,24.20
2015,06,29,12,13,24.20
2015,06,29,12,14,24.20
2015,06,29,12,15,24.20
2015,06,29,12,16,24.20
2015,06,29,12,17,24.20
2015,06,29,12,18,24.20
2015,06,29,12,19,24.10
2015,06,29,12,20,24.10
2015,06,29,12,21,24.10
2015,06,29,12,22,24.10
2015,06,29,12,23,24.10
2015,06,29,12,24,24.30
2015,06,29,12,25,24.40
2015,06,29,12,26,24.50
2015,06,29,12,27,24.40
2015,06,29,12,28,24.40
2015,06,29,12,29,24.30
2015,06,29,12,30,24.30
2015,06,29,12,31,24.30
2015,06,29,12,32,24.20
2015,06,29,12,33,24.20
2015,06,29,12,34,24.10
2015,06,29,12,35,24.10
2015,06,29,12,36,24.10
2015,06,29,12,37,24.10
2015,06,29,12,38,24.10
2015,06,29,12,39,24.10
2015,06,29,12,40,24.00
2015,06,29,12,41,23.90
2015,06,29,12,42,23.80
2015,06,29,12,43,23.80
2015,06,29,12,44,23.90
2015,06,29,12,45,23.80
2015,06,29,12,46,23.80
2015,06,29,12,47,23.80
2015,06,29,12,48,23.80
2015,06,29,12,49,23.80
2015,06,29,12,50,23.80
2015,06,29,12,51,23.90
2015,06,29,12,52,23.90
2015,06,29,12,53,23.90
2015,06,29,12,54,23.90
2015,06,29,12,55,24.00
2015,06,29,12,56,24.10
2015,06,29,12,57,24.10
2015,06,29,12,58,24.10
2015,06,29,12,59,24.10
2015,06,29,13,00,24.20
2015,06,29,13,01,24.20
2015,06,29,13,02,24.20
2015,06,29,13,03,24.20
2015,06,29,13,04,24.20
2015,06,29,13,05,24.10
2015,06,29,13,06,24.10
2015,06,29,13,07,24.10
2015,06,29,13,08,24.10
2015,06,29,13,09,24.10
2015,06,29,13,10,24.00
2015,06,29,13,11,24.10
2015,06,29,13,12,24.10
2015,06,29,13,13,24.10
2015,06,29,13,14,24.10
2015,06,29,13,15,24.10
2015,06,29,13,16,24.10
2015,06,29,13,17,24.10
2015,06,29,13,18,24.10
2015,06,29,13,19,24.20
2015,06,29,13,20,24.20
2015,06,29,13,21,24.20
2015,06,29,13,22,24.20
2015,06,29,13,23,24.40
2015,06,29,13,24,24.40
2015,06,29,13,25,24.40
2015,06,29,13,26,24.50
2015,06,29,13,27,24.70
2015,06,29,13,28,24.90
2015,06,29,13,29,25.00
2015,06,29,13,30,25.00
2015,06,29,13,31,24.90
2015,06,29,13,32,24.90
2015,06,29,13,33,24.90
2015,06,29,13,34,24.90
2015,06,29,13,35,24.90
2015,06,29,13,36,25.00
2015,06,29,13,37,24.90
2015,06,29,13,38,24.90
2015,06,29,13,39,24.90
2015,06,29,13,40,24.90
2015,06,29,13,41,24.90
2015,06,29,13,42,24.90
2015,06,29,13,43,24.90
2015,06,29,13,44,25.00
2015,06,29,13,45,25.10
2015,06,29,13,46,25.20
2015,06,29,13,47,25.30
2015,06,29,13,48,25.40
2015,06,29,13,49,25.50
2015,06,29,13,50,25.50
2015,06,29,13,51,25.60
2015,06,29,13,52,25.60
2015,06,29,13,53,25.60
2015,06,29,13,54,25.70
2015,06,29,13,55,25.80
2015,06,29,13,56,25.80
2015,06,29,13,57,25.80
2015,06,29,13,58,25.80
2015,06,29,13,59,25.80
2015,06,29,14,00,25.90
2015,06,29,14,01,25.90
2015,06,29,14,02,25.90
2015,06,29,14,03,25.90
2015,06,29,14,04,25.90
2015,06,29,14,05,25.90
2015,06,29,14,06,26.00
2015,06,29,14,07,26.10
2015,06,29,14,08,26.20
2015,06,29,14,09,26.30
2015,06,29,14,10,26.30
2015,06,29,14,11,26.20
2015,06,29,14,12,26.20
2015,06,29,14,13,26.10
2015,06,29,14,14,26.00
2015,06,29,14,15,26.00
2015,06,29,14,16,26.00
2015,06,29,14,17,25.90
2015,06,29,14,18,25.80
2015,06,29,14,19,25.70
2015,06,29,14,20,25.60
2015,06,29,14,21,25.50
2015,06,29,14,22,25.40
2015,06,29,14,23,25.60
2015,06,29,14,24,25.70
2015,06,29,14,25,25.70
2015,06,29,14,26,25.70
2015,06,29,14,27,25.70
2015,06,29,14,28,25.80
2015,06,29,14,29,25.80
2015,06,29,14,30,25.80
2015,06,29,14,31,25.80
2015,06,29,14,32,25.90
2015,06,29,14,33,25.90
2015,06,29,14,34,25.90
2015,06,29,14,35,25.90
2015,06,29,14,36,25.90
2015,06,29,14,37,26.00
2015,06,29,14,38,26.00
2015,06,29,14,39,26.10
2015,06,29,14,40,26.10
2015,06,29,14,41,26.10
2015,06,29,14,42,26.10
2015,06,29,14,43,26.20
2015,06,29,14,44,26.10
2015,06,29,14,45,26.10
2015,06,29,14,46,26.10
2015,06,29,14,47,26.10
2015,06,29,14,48,26.10
2015,06,29,14,49,26.10
2015,06,29,14,50,26.10
2015,06,29,14,51,26.20
2015,06,29,14,52,26.30
2015,06,29,14,53,26.40
2015,06,29,14,54,26.50
2015,06,29,14,55,26.60
2015,06,29,14,56,26.60
2015,06,29,14,57,26.60
2015,06,29,14,58,26.60
2015,06,29,14,59,26.60
2015,06,29,15,00,26.60
2015,06,29,15,01,26.60
2015,06,29,15,02,26.50
2015,06,29,15,03,26.30
2015,06,29,15,04,26.20
2015,06,29,15,05,26.10
2015,06,29,15,06,26.00
2015,06,29,15,07,25.90
2015,06,29,15,08,25.80
2015,06,29,15,09,25.80
2015,06,29,15,10,25.80
2015,06,29,15,11,25.70
2015,06,29,15,12,25.60
2015,06,29,15,13,25.70
2015,06,29,15,14,25.70
2015,06,29,15,15,25.60
2015,06,29,15,16,25.60
2015,06,29,15,17,25.80
2015,06,29,15,18,25.80
2015,06,29,15,19,25.90
2015,06,29,15,20,25.90
2015,06,29,15,21,25.90
2015,06,29,15,22,25.80
2015,06,29,15,23,25.80
2015,06,29,15,24,25.70
2015,06,29,15,25,25.60
2015,06,29,15,26,25.50
2015,06,29,15,27,25.40
2015,06,29,15,28,25.30
2015,06,29,15,29,25.10
2015,06,29,15,30,25.00
2015,06,29,15,31,25.10
2015,06,29,15,32,25.10
2015,06,29,15,33,25.20
2015,06,29,15,34,25.30
2015,06,29,15,35,25.50
2015,06,29,15,36,25.50
2015,06,29,15,37,25.50
2015,06,29,15,38,25.50
2015,06,29,15,39,25.50
2015,06,29,15,40,25.50
2015,06,29,15,41,25.50
2015,06,29,15,42,25.50
2015,06,29,15,43,25.50
2015,06,29,15,44,25.50
2015,06,29,15,45,25.50
2015,06,29,15,46,25.50
2015,06,29,15,47,25.50
2015,06,29,15,48,25.40
2015,06,29,15,49,25.30
2015,06,29,15,50,25.30
2015,06,29,15,51,25.30
2015,06,29,15,52,25.30
2015,06,29,15,53,25.30
2015,06,29,15,54,25.20
2015,06,29,15,55,25.20
2015,06,29,15,56,25.30
2015,06,29,15,57,25.30
2015,06,29,15,58,25.30
2015,06,29,15,59,25.40
2015,06,29,16,00,25.40
2015,06,29,16,01,25.50
2015,06,29,16,02,25.50
2015,06,29,16,03,25.50
2015,06,29,16,04,25.50
2015,06,29,16,05,25.40
2015,06,29,16,06,25.40
2015,06,29,16,07,25.30
2015,06,29,16,08,25.20
2015,06,29,16,09,25.10
2015,06,29,16,10,25.10
2015,06,29,16,11,25.00
2015,06,29,16,12,25.00
2015,06,29,16,13,25.00
2015,06,29,16,14,25.00
2015,06,29,16,15,25.00
2015,06,29,16,16,25.00
2015,06,29,16,17,25.00
2015,06,29,16,18,25.00
2015,06,29,16,19,25.00
2015,06,29,16,20,25.00
2015,06,29,16,21,25.00
2015,06,29,16,22,24.90
2015,06,29,16,23,24.90
2015,06,29,16,24,24.90
2015,06,29,16,25,24.90
2015,06,29,16,26,24.90
2015,06,29,16,27,25.00
2015,06,29,16,28,25.10
2015,06,29,16,29,25.10
2015,06,29,16,30,25.10
2015,06,29,16,31,25.10
2015,06,29,16,32,25.10
2015,06,29,16,33,25.00
2015,06,29,16,34,25.00
2015,06,29,16,35,25.00
2015,06,29,16,36,25.00
2015,06,29,16,37,24.90
2015,06,29,16,38,24.80
2015,06,29,16,39,24.70
2015,06,29,16,40,24.60
2015,06,29,16,41,24.50
2015,06,29,16,42,24.40
2015,06,29,16,43,24.30
2015,06,29,16,44,24.30
2015,06,29,16,45,24.20
2015,06,29,16,46,24.10
2015,06,29,16,47,24.10
2015,06,29,16,48,24.00
2015,06,29,16,49,23.90
2015,06,29,16,50,23.90
2015,06,29,16,51,23.80
2015,06,29,16,52,23.80
2015,06,29,16,53,23.90
2015,06,29,16,54,23.90
2015,06,29,16,55,23.80
2015,06,29,16,56,23.80
2015,06,29,16,57,23.70
2015,06,29,16,58,23.70
2015,06,29,16,59,23.60
2015,06,29,17,00,23.40
2015,06,29,17,01,23.30
2015,06,29,17,02,23.30
2015,06,29,17,03,23.30
2015,06,29,17,04,23.30
2015,06,29,17,05,23.30
2015,06,29,17,06,23.20
2015,06,29,17,07,23.30
2015,06,29,17,08,23.30
2015,06,29,17,09,23.50
2015,06,29,17,10,23.60
2015,06,29,17,11,23.70
2015,06,29,17,12,23.70
2015,06,29,17,13,23.70
2015,06,29,17,14,23.60
2015,06,29,17,15,23.60
2015,06,29,17,16,23.60
2015,06,29,17,17,23.60
2015,06,29,17,18,23.50
2015,06,29,17,19,23.40
2015,06,29,17,20,23.30
2015,06,29,17,21,23.30
2015,06,29,17,22,23.20